| time (UTC) | temp F | wind direction | speed MPH | gust MPH | rain 1hr in | rain 24hr in | rain mn in | humidity % | barometer mb |
| 20260504185001 | 69 | 238 | 6.0 | 14.0 | 0.00 | 0.00 | 0.00 | 39 | 1009.9 |
| 20260504184506 | 68 | 238 | 4.0 | 9.0 | 0.00 | 0.00 | 0.00 | 39 | 1010.1 |
| 20260504184002 | 68 | 149 | 4.0 | 9.0 | 0.00 | 0.00 | 0.00 | 40 | 1010.0 |
| 20260504183503 | 67 | 233 | 4.0 | 11.0 | 0.00 | 0.00 | 0.00 | 41 | 1010.2 |
| 20260504183008 | 67 | 244 | 6.0 | 11.0 | 0.00 | 0.00 | 0.00 | 39 | 1010.2 |
| 20260504182503 | 66 | 208 | 5.0 | 10.0 | 0.00 | 0.00 | 0.00 | 40 | 1010.3 |
| 20260504182005 | 66 | 255 | 5.0 | 10.0 | 0.00 | 0.00 | 0.00 | 39 | 1010.3 |
| 20260504181525 | 66 | 245 | 4.0 | 11.0 | 0.00 | 0.00 | 0.00 | 38 | 1010.4 |
| 20260504181004 | 67 | 242 | 5.0 | 11.0 | 0.00 | 0.00 | 0.00 | 40 | 1010.5 |
| 20260504180507 | 67 | 258 | 5.0 | 10.0 | 0.00 | 0.00 | 0.00 | 38 | 1010.5 |
| 20260504180019 | 68 | 253 | 3.0 | 11.0 | 0.00 | 0.00 | 0.00 | 39 | 1010.6 |
| 20260504175503 | 68 | 219 | 4.0 | 11.0 | 0.00 | 0.00 | 0.00 | 38 | 1010.6 |
| 20260504175005 | 69 | 251 | 3.0 | 10.0 | 0.00 | 0.00 | 0.00 | 37 | 1010.5 |
| 20260504174520 | 68 | 264 | 5.0 | 10.0 | 0.00 | 0.00 | 0.00 | 38 | 1010.6 |
| 20260504174003 | 68 | 245 | 5.0 | 10.0 | 0.00 | 0.00 | 0.00 | 43 | 1010.6 |
| 20260504173508 | 68 | 310 | 6.0 | 14.0 | 0.00 | 0.00 | 0.00 | 39 | 1010.6 |
| 20260504173008 | 68 | 259 | 4.0 | 14.0 | 0.00 | 0.00 | 0.00 | 39 | 1010.6 |
| 20260504172501 | 68 | 265 | 8.0 | 14.0 | 0.00 | 0.00 | 0.00 | 38 | 1010.6 |
| 20260504172006 | 68 | 231 | 5.0 | 9.0 | 0.00 | 0.00 | 0.00 | 39 | 1010.7 |
| 20260504171512 | 68 | 246 | 6.0 | 14.0 | 0.00 | 0.00 | 0.00 | 40 | 1010.7 |
| 20260504171006 | 68 | 253 | 8.0 | 14.0 | 0.00 | 0.00 | 0.00 | 38 | 1010.7 |
| 20260504170505 | 67 | 229 | 3.0 | 12.0 | 0.00 | 0.00 | 0.00 | 41 | 1010.8 |
| 20260504151003 | 63 | 249 | 6.0 | 11.0 | 0.00 | 0.00 | 0.00 | 39 | 1012.3 |
| 20260504150504 | 63 | 247 | 3.0 | 9.0 | 0.00 | 0.00 | 0.00 | 40 | 1012.3 |
| 20260504141009 | 59 | 242 | 6.0 | 13.0 | 0.00 | 0.00 | 0.00 | 39 | 1012.3 |
| 20260504140507 | 59 | 219 | 7.0 | 11.0 | 0.00 | 0.00 | 0.00 | 42 | 1012.3 |
| 20260504130506 | 53 | 251 | 6.0 | 10.0 | 0.00 | 0.00 | 0.00 | 45 | 1012.8 |
| 20260504110508 | 49 | 251 | 4.0 | 8.0 | 0.00 | 0.00 | 0.00 | 49 | 1012.9 |
| 20260504100508 | 47 | 263 | 3.0 | 6.0 | 0.00 | 0.00 | 0.00 | 52 | 1012.9 |
| 20260504082003 | 47 | 248 | 2.0 | 6.0 | 0.00 | 0.00 | 0.00 | 51 | 1013.2 |
| 20260504081513 | 47 | 253 | 1.0 | 6.0 | 0.00 | 0.00 | 0.00 | 52 | 1013.3 |
| 20260504081005 | 48 | 282 | 1.0 | 6.0 | 0.00 | 0.00 | 0.00 | 52 | 1013.3 |
| 20260504080506 | 48 | 245 | 1.0 | 5.0 | 0.00 | 0.00 | 0.00 | 51 | 1013.3 |
| 20260504050508 | 50 | 257 | 4.0 | 9.0 | 0.00 | 0.00 | 0.00 | 47 | 1013.2 |
| 20260504045509 | 50 | 255 | 5.0 | 9.0 | 0.00 | 0.00 | 0.00 | 47 | 1013.3 |
| 20260504045010 | 50 | 214 | 5.0 | 9.0 | 0.00 | 0.00 | 0.00 | 48 | 1013.2 |
| 20260504044515 | 49 | 257 | 5.0 | 7.0 | 0.00 | 0.00 | 0.00 | 48 | 1013.3 |
| 20260504044010 | 49 | 249 | 4.0 | 7.0 | 0.00 | 0.00 | 0.00 | 48 | 1013.2 |
| 20260504043507 | 49 | 256 | 3.0 | 6.0 | 0.00 | 0.00 | 0.00 | 49 | 1013.2 |
| 20260504043021 | 49 | 259 | 3.0 | 6.0 | 0.00 | 0.00 | 0.00 | 50 | 1013.2 |
| 20260504042505 | 48 | 267 | 2.0 | 5.0 | 0.00 | 0.00 | 0.00 | 50 | 1013.2 |
| 20260504042005 | 48 | 246 | 2.0 | 4.0 | 0.00 | 0.00 | 0.00 | 51 | 1013.1 |
| 20260504041524 | 48 | 267 | 2.0 | 4.0 | 0.00 | 0.00 | 0.00 | 53 | 1013.1 |
| 20260504041006 | 47 | 254 | 2.0 | 4.0 | 0.00 | 0.00 | 0.00 | 52 | 1013.1 |
| 20260504040507 | 47 | 279 | 1.0 | 4.0 | 0.00 | 0.00 | 0.00 | 52 | 1013.1 |
| 20260504040027 | 47 | 281 | 0.0 | 2.0 | 0.00 | 0.00 | 0.00 | 54 | 1013.1 |
| 20260504035513 | 47 | 267 | 0.0 | 2.0 | 0.00 | 0.00 | 0.00 | 54 | 1013.1 |
| 20260504035008 | 47 | 275 | 0.0 | 2.0 | 0.00 | 0.00 | 0.00 | 53 | 1013.1 |
| 20260504034533 | 47 | 269 | 0.0 | 2.0 | 0.00 | 0.00 | 0.00 | 53 | 1013.0 |
| 20260504034008 | 47 | 269 | 0.0 | 2.0 | 0.00 | 0.00 | 0.00 | 52 | 1012.9 |
| 20260504033508 | 47 | 275 | 0.0 | 1.0 | 0.00 | 0.00 | 0.00 | 53 | 1012.8 |
| 20260504033041 | 48 | 288 | 0.0 | 0.0 | 0.00 | 0.00 | 0.00 | 53 | 1012.8 |
| 20260504032506 | 48 | 288 | 0.0 | 1.0 | 0.00 | 0.00 | 0.00 | 52 | 1012.9 |
| 20260504032006 | 48 | 288 | 0.0 | 1.0 | 0.00 | 0.00 | 0.00 | 53 | 1012.8 |
| 20260504031507 | 48 | 263 | 0.0 | 1.0 | 0.00 | 0.00 | 0.00 | 51 | 1012.8 |
| 20260504031005 | 48 | 263 | 0.0 | 1.0 | 0.00 | 0.00 | 0.00 | 50 | 1012.8 |
| 20260504030502 | 48 | 247 | 0.0 | 2.0 | 0.00 | 0.00 | 0.00 | 50 | 1012.8 |
| 20260504030007 | 49 | 286 | 0.0 | 3.0 | 0.00 | 0.00 | 0.00 | 50 | 1012.8 |
| 20260504025504 | 49 | 262 | 0.0 | 3.0 | 0.00 | 0.00 | 0.00 | 50 | 1012.7 |
| 20260504025005 | 49 | 301 | 0.0 | 3.0 | 0.00 | 0.00 | 0.00 | 51 | 1012.8 |
| 20260504024534 | 49 | 263 | 0.0 | 3.0 | 0.00 | 0.00 | 0.00 | 49 | 1012.7 |
| 20260504024007 | 50 | 232 | 1.0 | 3.0 | 0.00 | 0.00 | 0.00 | 48 | 1012.8 |
| 20260504023504 | 50 | 259 | 0.0 | 4.0 | 0.00 | 0.00 | 0.00 | 48 | 1012.8 |
| 20260504023017 | 50 | 265 | 0.0 | 4.0 | 0.00 | 0.00 | 0.00 | 47 | 1012.9 |
| 20260504022505 | 50 | 255 | 1.0 | 3.0 | 0.00 | 0.00 | 0.00 | 47 | 1012.8 |
| 20260504022012 | 50 | 246 | 1.0 | 3.0 | 0.00 | 0.00 | 0.00 | 47 | 1012.9 |
| 20260504021519 | 51 | 269 | 0.0 | 7.0 | 0.00 | 0.00 | 0.00 | 47 | 1012.8 |
| 20260504021007 | 51 | 269 | 1.0 | 7.0 | 0.00 | 0.00 | 0.00 | 46 | 1012.8 |
| 20260504020507 | 51 | 241 | 1.0 | 4.0 | 0.00 | 0.00 | 0.00 | 46 | 1012.8 |
| 20260504020004 | 51 | 263 | 3.0 | 4.0 | 0.00 | 0.00 | 0.00 | 45 | 1012.7 |
| 20260504015503 | 51 | 249 | 1.0 | 7.0 | 0.00 | 0.00 | 0.00 | 45 | 1012.7 |
| 20260504015003 | 51 | 252 | 3.0 | 8.0 | 0.00 | 0.00 | 0.00 | 45 | 1012.7 |
| 20260504014510 | 51 | 252 | 4.0 | 8.0 | 0.00 | 0.00 | 0.00 | 46 | 1012.7 |
| 20260504014007 | 51 | 223 | 1.0 | 6.0 | 0.00 | 0.00 | 0.00 | 46 | 1012.7 |
| 20260504013506 | 51 | 257 | 3.0 | 7.0 | 0.00 | 0.00 | 0.00 | 45 | 1012.6 |
| 20260504013017 | 51 | 247 | 3.0 | 7.0 | 0.00 | 0.00 | 0.00 | 44 | 1012.7 |
| 20260504012505 | 51 | 257 | 3.0 | 7.0 | 0.00 | 0.00 | 0.00 | 45 | 1012.6 |
| 20260504012007 | 51 | 250 | 3.0 | 6.0 | 0.00 | 0.00 | 0.00 | 44 | 1012.5 |
| 20260504011517 | 51 | 261 | 2.0 | 6.0 | 0.00 | 0.00 | 0.00 | 44 | 1012.4 |
| 20260504011006 | 51 | 246 | 3.0 | 6.0 | 0.00 | 0.00 | 0.00 | 44 | 1012.4 |
| 20260504010512 | 51 | 252 | 2.0 | 4.0 | 0.00 | 0.00 | 0.00 | 45 | 1012.4 |
| 20260504010020 | 51 | 254 | 2.0 | 4.0 | 0.00 | 0.00 | 0.00 | 45 | 1012.3 |
| 20260504005507 | 51 | 270 | 2.0 | 4.0 | 0.00 | 0.00 | 0.00 | 45 | 1012.3 |
| 20260504005007 | 51 | 267 | 1.0 | 4.0 | 0.00 | 0.00 | 0.00 | 46 | 1012.3 |
| 20260504004538 | 51 | 258 | 2.0 | 4.0 | 0.00 | 0.00 | 0.00 | 45 | 1012.2 |
| 20260504004003 | 51 | 254 | 0.0 | 4.0 | 0.00 | 0.00 | 0.00 | 45 | 1012.2 |
| 20260504003505 | 51 | 236 | 1.0 | 4.0 | 0.00 | 0.00 | 0.00 | 44 | 1012.2 |
| 20260504003011 | 51 | 246 | 1.0 | 4.0 | 0.00 | 0.00 | 0.00 | 44 | 1012.1 |
| 20260504002506 | 52 | 254 | 1.0 | 3.0 | 0.00 | 0.00 | 0.00 | 43 | 1012.1 |
| 20260504002005 | 52 | 273 | 1.0 | 3.0 | 0.00 | 0.00 | 0.00 | 44 | 1012.0 |
| 20260504001514 | 52 | 273 | 0.0 | 3.0 | 0.00 | 0.00 | 0.00 | 44 | 1012.1 |
| 20260504001010 | 52 | 271 | 1.0 | 5.0 | 0.00 | 0.00 | 0.00 | 42 | 1012.1 |
| 20260504000505 | 52 | 259 | 2.0 | 5.0 | 0.00 | 0.00 | 0.00 | 42 | 1012.0 |
| 20260504000021 | 53 | 238 | 1.0 | 4.0 | 0.00 | 0.00 | 0.00 | 42 | 1012.0 |
| 20260503235506 | 53 | 263 | 1.0 | 4.0 | 0.00 | 0.00 | 0.00 | 42 | 1012.0 |
| 20260503235010 | 53 | 247 | 2.0 | 4.0 | 0.00 | 0.00 | 0.00 | 42 | 1012.0 |
| 20260503234529 | 53 | 252 | 1.0 | 4.0 | 0.00 | 0.00 | 0.00 | 41 | 1012.0 |
| 20260503234007 | 53 | 262 | 0.0 | 4.0 | 0.00 | 0.00 | 0.00 | 42 | 1012.0 |
| 20260503233503 | 53 | 263 | 2.0 | 4.0 | 0.00 | 0.00 | 0.00 | 42 | 1012.0 |
| 20260503233007 | 53 | 263 | 0.0 | 4.0 | 0.00 | 0.00 | 0.00 | 42 | 1011.9 |
| 20260503232504 | 54 | 263 | 1.0 | 4.0 | 0.00 | 0.00 | 0.00 | 41 | 1011.8 |
| 20260503232004 | 54 | 259 | 1.0 | 3.0 | 0.00 | 0.00 | 0.00 | 41 | 1011.7 |
| 20260503231514 | 54 | 231 | 1.0 | 3.0 | 0.00 | 0.00 | 0.00 | 41 | 1011.7 |
| 20260503231007 | 54 | 275 | 0.0 | 2.0 | 0.00 | 0.00 | 0.00 | 40 | 1011.7 |
| 20260503230505 | 54 | 269 | 0.0 | 3.0 | 0.00 | 0.00 | 0.00 | 41 | 1011.7 |
| 20260503230018 | 54 | 258 | 1.0 | 3.0 | 0.00 | 0.00 | 0.00 | 39 | 1011.6 |
| 20260503225505 | 54 | 283 | 1.0 | 2.0 | 0.00 | 0.00 | 0.00 | 40 | 1011.7 |
| 20260503225008 | 54 | 352 | 1.0 | 3.0 | 0.00 | 0.00 | 0.00 | 41 | 1011.8 |
| 20260503224521 | 55 | 254 | 1.0 | 3.0 | 0.00 | 0.00 | 0.00 | 39 | 1011.7 |
| 20260503224008 | 55 | 273 | 1.0 | 3.0 | 0.00 | 0.00 | 0.00 | 39 | 1011.7 |
| 20260503223507 | 55 | 276 | 1.0 | 6.0 | 0.00 | 0.00 | 0.00 | 39 | 1011.7 |
| 20260503223025 | 55 | 284 | 0.0 | 6.0 | 0.00 | 0.00 | 0.00 | 39 | 1011.7 |
| 20260503222506 | 55 | 127 | 1.0 | 7.0 | 0.00 | 0.00 | 0.00 | 40 | 1011.7 |
| 20260503222004 | 55 | 231 | 2.0 | 7.0 | 0.00 | 0.00 | 0.00 | 39 | 1011.6 |
| 20260503221510 | 55 | 281 | 1.0 | 7.0 | 0.00 | 0.00 | 0.00 | 37 | 1011.6 |
| 20260503221004 | 56 | 263 | 2.0 | 4.0 | 0.00 | 0.00 | 0.00 | 36 | 1011.7 |
| 20260503220504 | 56 | 293 | 0.0 | 3.0 | 0.00 | 0.00 | 0.00 | 38 | 1011.7 |
| 20260503220016 | 56 | 257 | 1.0 | 3.0 | 0.00 | 0.00 | 0.00 | 38 | 1011.7 |
| 20260503215505 | 56 | 318 | 1.0 | 8.0 | 0.00 | 0.00 | 0.00 | 38 | 1011.6 |
| 20260503215005 | 56 | 265 | 2.0 | 8.0 | 0.00 | 0.00 | 0.00 | 37 | 1011.6 |
| 20260503214519 | 56 | 279 | 1.0 | 7.0 | 0.00 | 0.00 | 0.00 | 39 | 1011.6 |
| 20260503214011 | 56 | 255 | 3.0 | 6.0 | 0.00 | 0.00 | 0.00 | 37 | 1011.5 |
| 20260503213512 | 56 | 205 | 2.0 | 5.0 | 0.00 | 0.00 | 0.00 | 38 | 1011.4 |
| 20260503213028 | 56 | 110 | 2.0 | 5.0 | 0.00 | 0.00 | 0.00 | 37 | 1011.4 |
| 20260503212507 | 56 | 277 | 2.0 | 10.0 | 0.00 | 0.00 | 0.00 | 36 | 1011.3 |
| 20260503212010 | 57 | 242 | 2.0 | 10.0 | 0.00 | 0.00 | 0.00 | 38 | 1011.3 |
| 20260503211536 | 57 | 261 | 2.0 | 8.0 | 0.00 | 0.00 | 0.00 | 37 | 1011.1 |
| 20260503211010 | 57 | 273 | 1.0 | 8.0 | 0.00 | 0.00 | 0.00 | 36 | 1011.2 |
| 20260503210504 | 57 | 271 | 2.0 | 5.0 | 0.00 | 0.00 | 0.00 | 38 | 1011.3 |
| 20260503210012 | 57 | 292 | 2.0 | 5.0 | 0.00 | 0.00 | 0.00 | 35 | 1011.4 |
| 20260503205506 | 57 | 271 | 2.0 | 5.0 | 0.00 | 0.00 | 0.00 | 36 | 1011.4 |
| 20260503205004 | 57 | 227 | 1.0 | 4.0 | 0.00 | 0.00 | 0.00 | 37 | 1011.4 |
| 20260503204520 | 58 | 338 | 1.0 | 4.0 | 0.00 | 0.00 | 0.00 | 35 | 1011.4 |
| 20260503204009 | 58 | 223 | 2.0 | 7.0 | 0.00 | 0.00 | 0.00 | 34 | 1011.5 |
| 20260503203507 | 58 | 275 | 1.0 | 7.0 | 0.00 | 0.00 | 0.00 | 39 | 1011.5 |
| 20260503203024 | 58 | 241 | 3.0 | 6.0 | 0.00 | 0.00 | 0.00 | 35 | 1011.5 |
| 20260503202508 | 58 | 300 | 2.0 | 6.0 | 0.00 | 0.00 | 0.00 | 35 | 1011.5 |
| 20260503202012 | 58 | 270 | 2.0 | 8.0 | 0.00 | 0.00 | 0.00 | 36 | 1011.5 |
| 20260503201525 | 58 | 252 | 1.0 | 12.0 | 0.00 | 0.00 | 0.00 | 38 | 1011.5 |
| 20260503201006 | 59 | 243 | 3.0 | 12.0 | 0.00 | 0.00 | 0.00 | 35 | 1011.4 |
| 20260503200513 | 58 | 299 | 2.0 | 6.0 | 0.00 | 0.00 | 0.00 | 36 | 1011.4 |
| 20260503200028 | 58 | 279 | 3.0 | 6.0 | 0.00 | 0.00 | 0.00 | 36 | 1011.2 |
| 20260503195507 | 58 | 236 | 1.0 | 5.0 | 0.00 | 0.00 | 0.00 | 37 | 1011.6 |
| 20260503195006 | 58 | 229 | 2.0 | 9.0 | 0.00 | 0.00 | 0.00 | 34 | 1011.8 |
| 20260503194515 | 58 | 217 | 2.0 | 9.0 | 0.00 | 0.00 | 0.00 | 34 | 1011.8 |
| 20260503194006 | 58 | 235 | 3.0 | 8.0 | 0.00 | 0.00 | 0.00 | 36 | 1011.9 |
| 20260503193509 | 57 | 269 | 2.0 | 4.0 | 0.00 | 0.00 | 0.00 | 35 | 1011.9 |
| 20260503193011 | 57 | 250 | 2.0 | 6.0 | 0.00 | 0.00 | 0.00 | 35 | 1011.9 |
| 20260503192502 | 57 | 263 | 2.0 | 7.0 | 0.00 | 0.00 | 0.00 | 40 | 1012.0 |
| 20260503192002 | 57 | 274 | 2.0 | 7.0 | 0.00 | 0.00 | 0.00 | 36 | 1011.9 |
| 20260503191506 | 57 | 243 | 3.0 | 7.0 | 0.00 | 0.00 | 0.00 | 37 | 1012.0 |
| 20260503191006 | 57 | 277 | 2.0 | 9.0 | 0.00 | 0.00 | 0.00 | 34 | 1012.0 |
| 20260503190512 | 57 | 342 | 3.0 | 9.0 | 0.00 | 0.00 | 0.00 | 36 | 1012.1 |
| 20260503190018 | 57 | 309 | 4.0 | 8.0 | 0.00 | 0.00 | 0.00 | 34 | 1012.2 |
| 20260503185504 | 57 | 259 | 2.0 | 8.0 | 0.00 | 0.00 | 0.00 | 36 | 1012.1 |